[[{"header":{"parameterUnit":"m.s-1","parameterCategory":1,"la1":30.2991,"la2":30.254,"lo1":-89.0895,"lo2":-89.0444,"dy":0.0017,"dx":0.0017,"nx":28,"ny":28,"refTime":"2023-07-24T03:00:00:Z","depth":0,"parameterNumber":2,"parameterNumberName":"U-component_of_WINDS"},"data":[0,0,0,0,0,0,0,0,0,0,0,0,0,0,0,0,0,0,0,0,0,0,0,0,0,0,0,0,0,0,0,0,0,0,0,0,0,0,0,0,0,0,0,0,0,0,0,0,0,0,0,0,0,0,0,0,0,0,1.8333,1.8335,0,1.8465,1.8466,1.8468,1.8505,1.8504,1.8503,1.8502,1.8637,1.8641,1.8645,0,0,0,0,0,0,0,0,0,0,0,0,0,1.8114,1.8118,1.8333,1.8335,1.8337,1.8465,1.8467,1.8468,1.8505,1.8504,1.8503,1.8502,1.8636,1.8641,1.8646,0,0,0,0,0,0,0,0,0,0,0,0,0,1.8224,1.8119,1.8333,1.837,1.8375,1.8464,1.8467,1.8469,1.8505,1.8504,1.8503,1.8502,1.8634,1.864,1.8647,1.8708,0,0,1.8666,1.8669,0,0,0,0,0,0,0,0,1.8218,1.8232,1.8363,1.8368,1.8373,1.8467,1.8439,1.8549,1.8505,1.8456,1.8502,1.8501,1.8581,1.8592,1.8619,1.8715,1.8721,1.8667,1.8671,1.8673,1.8675,0,0,0,0,0,0,0,1.821,1.8226,1.8385,1.8365,1.8371,1.8381,1.8395,1.846,1.8523,1.846,1.8463,1.8478,1.8584,1.8613,1.8623,1.8723,1.8667,1.8672,1.8676,1.8679,1.8877,1.8878,0,0,0,0,0,0,1.8196,1.822,1.8381,1.8389,1.8291,1.8385,1.8401,1.8438,1.8523,1.8534,1.8479,1.8479,1.8603,1.8615,1.8628,1.8707,1.8673,1.8679,1.8683,1.8875,1.8877,1.8879,0,0,0,0,0,0,1.8191,1.821,1.8376,1.8306,1.8327,1.839,1.8431,1.8441,1.847,1.8537,1.8548,1.8497,1.8602,1.8618,1.8688,1.8712,1.8682,1.8688,1.8874,1.8876,1.8878,1.8864,0,0,0,0,0,0,1.8185,1.8208,1.8232,1.8306,1.8331,1.8434,1.8433,1.8445,1.8481,1.8483,1.8557,1.8568,1.8603,1.8679,1.8695,1.872,1.8693,1.8872,1.8875,1.8877,1.8863,1.8866,1.8868,0,0,0,0,0,1.8177,1.8223,1.8233,1.8252,1.8362,1.8436,1.845,1.8489,1.8483,1.8508,1.8551,1.8565,1.8706,1.8685,1.8704,1.8731,1.8871,1.8874,1.8877,1.8862,1.8865,1.8868,0,0,0,0,0,0,1.815,1.8233,1.8245,1.8317,1.8369,1.8442,1.8474,1.8491,1.8546,1.8545,1.8592,1.8608,1.8675,1.871,1.8685,1.8796,1.8789,1.8796,1.8771,1.8775,1.8777,1.8767,1.8698,0,0,0,0,0,1.8152,1.8205,1.8274,1.8331,1.8356,1.841,1.8444,1.847,1.8525,1.8548,1.8596,1.8649,1.8706,1.8742,1.8798,1.8868,1.8885,1.8896,1.8899,1.8901,1.8906,1.8947,1.8953,1.8889,1.8889,1.8889,0,0,1.8158,1.8209,1.824,1.8326,1.837,1.8424,1.8429,1.8485,1.8525,1.8556,1.8625,1.8662,1.8726,1.8796,1.883,1.8828,1.8928,1.8905,1.8905,1.891,1.8951,1.8957,1.8962,1.8891,1.8891,1.8891,0,0,1.8195,1.8239,1.8291,1.8335,1.8401,1.8437,1.8449,1.852,1.8546,1.8616,1.864,1.8689,1.8785,1.883,1.8865,1.892,1.8936,1.8936,1.895,1.8989,1.8994,1.8999,1.9019,1.9026,1.8942,1.8942,1.8942,0,1.8193,1.8275,1.8316,1.8371,1.8409,1.8439,1.8493,1.8533,1.8614,1.8639,1.8636,1.8758,1.8803,1.8884,1.8898,1.8925,1.8941,1.8928,1.899,1.8995,1.9,1.902,1.9028,1.8942,1.8942,1.8942,1.8942,0,1.827,1.8326,1.836,1.8438,1.8479,1.8533,1.8583,1.862,1.8642,1.8679,1.875,1.8805,1.8873,1.8894,1.8916,1.8979,1.8976,1.8981,1.8974,1.9005,1.9025,1.9033,1.8941,1.8941,1.8941,1.8941,0,0,1.8294,1.8394,1.8406,1.8441,1.8517,1.8561,1.8617,1.8683,1.8715,1.8769,1.8818,1.8899,1.8904,1.8944,1.8971,1.9006,1.9047,1.9006,1.9009,1.9013,1.9121,1.9118,1.9126,1.9058,1.9059,1.9061,1.9116,0,1.8342,1.8442,1.8481,1.8563,1.8616,1.8646,1.8695,1.8746,1.8782,1.8832,1.8872,1.8929,1.8931,1.8955,1.8991,1.9034,1.9069,1.9031,1.9104,1.9106,1.9088,1.9136,1.9132,1.9182,1.9124,1.9125,1.9126,0,1.841,1.8466,1.8553,1.8623,1.8646,1.8689,1.8754,1.8801,1.8861,1.8885,1.8929,1.8955,1.9015,1.9005,1.9089,1.9061,1.9094,1.912,1.9123,1.9131,1.9118,1.9147,1.9199,1.9207,1.9139,1.9138,1.9137,0,1.842,1.8517,1.8582,1.8611,1.8694,1.8723,1.8759,1.8817,1.8855,1.8912,1.8937,1.8999,1.9034,1.9082,1.9124,1.9112,1.9204,1.9197,1.9226,1.9225,1.9245,1.9243,1.9303,1.9264,1.9264,1.9264,1.9264,0,1.8469,1.8522,1.8587,1.8627,1.8687,1.8731,1.879,1.8828,1.8879,1.8928,1.8957,1.9002,1.9055,1.9107,1.914,1.9205,1.922,1.9242,1.925,1.9239,1.9237,1.9261,1.9259,1.9266,1.9266,1.9265,1.9265,0,1.849,1.8536,1.8609,1.8681,1.8701,1.8742,1.8804,1.8844,1.8881,1.8942,1.8959,1.9018,1.9081,1.9127,1.9208,1.9231,1.9301,1.9309,1.928,1.9285,1.9312,1.9309,1.9391,1.9404,1.9355,1.9355,1.9356,0,1.8519,1.856,1.8637,1.8671,1.8707,1.8762,1.8801,1.8846,1.8885,1.8956,1.8988,1.9053,1.9107,1.9206,1.9256,1.9319,1.9329,1.9354,1.9339,1.9327,1.9331,1.9328,1.9333,1.9356,1.9356,1.9356,1.9356,0,1.8566,1.8586,1.8641,1.8704,1.8749,1.8801,1.8853,1.888,1.8934,1.8977,1.9041,1.9083,1.9166,1.9231,1.9298,1.9336,1.9356,1.9361,1.9371,1.9361,1.9343,1.9354,1.9287,1.9359,1.9358,1.9358,1.9358,1.9358,1.8592,1.8631,1.8691,1.8751,1.8795,1.8843,1.8885,1.8927,1.8981,1.9053,1.9076,1.9143,1.9202,1.9295,1.9333,1.9387,1.9387,1.9401,1.9405,1.9408,1.9408,1.9334,1.9399,1.9399,1.9399,1.9399,1.9399,0,1.8641,1.8681,1.8736,1.8808,1.8856,1.887,1.8928,1.8967,1.9026,1.9079,1.9132,1.9207,1.9269,1.9324,1.939,1.9422,1.9433,1.9438,1.9436,1.9445,1.9404,1.9389,1.9428,1.9428,1.9428,1.9428,1.9428,1.9428,1.8672,1.8738,1.8766,1.8854,1.8894,1.896,1.8992,1.9037,1.908,1.9162,1.9214,1.925,1.9304,1.9374,1.9432,1.9447,1.947,1.9473,1.949,1.9451,1.9447,1.9444,1.943,1.9477,1.9477,1.9527,1.9527,1.9528]},{"header":{"parameterUnit":"m.s-1","parameterCategory":1,"la1":30.2991,"la2":30.254,"lo1":-89.0895,"lo2":-89.0444,"dy":0.0017,"dx":0.0017,"nx":28,"ny":28,"refTime":"2023-07-24T03:00:00:Z","depth":0,"parameterNumber":3,"parameterNumberName":"V-component_of_WINDS"},"data":[0,0,0,0,0,0,0,0,0,0,0,0,0,0,0,0,0,0,0,0,0,0,0,0,0,0,0,0,0,0,0,0,0,0,0,0,0,0,0,0,0,0,0,0,0,0,0,0,0,0,0,0,0,0,0,0,0,0,-1.3646,-1.3647,0,-1.3689,-1.369,-1.369,-1.3685,-1.3685,-1.3684,-1.3683,-1.3728,-1.373,-1.3732,0,0,0,0,0,0,0,0,0,0,0,0,0,-1.3561,-1.3563,-1.3646,-1.3647,-1.3647,-1.3689,-1.369,-1.369,-1.3685,-1.3684,-1.3684,-1.3683,-1.3728,-1.373,-1.3732,0,0,0,0,0,0,0,0,0,0,0,0,0,-1.3601,-1.3564,-1.3646,-1.365,-1.3651,-1.3689,-1.369,-1.369,-1.3686,-1.3684,-1.3683,-1.3682,-1.3727,-1.373,-1.3732,-1.377,0,0,-1.3741,-1.3742,0,0,0,0,0,0,0,0,-1.3598,-1.3604,-1.3649,-1.365,-1.3651,-1.3681,-1.3676,-1.3717,-1.3686,-1.3672,-1.3683,-1.3682,-1.3713,-1.3717,-1.3728,-1.3772,-1.3774,-1.3741,-1.3743,-1.3744,-1.3745,0,0,0,0,0,0,0,-1.3596,-1.3602,-1.3663,-1.3649,-1.3651,-1.365,-1.3654,-1.3684,-1.3698,-1.3673,-1.3673,-1.3678,-1.3714,-1.3725,-1.3729,-1.3775,-1.3741,-1.3744,-1.3745,-1.3746,-1.3852,-1.3853,0,0,0,0,0,0,-1.3592,-1.36,-1.3662,-1.3664,-1.3621,-1.3652,-1.3657,-1.3672,-1.3698,-1.3701,-1.3679,-1.3678,-1.3721,-1.3725,-1.373,-1.3776,-1.3744,-1.3747,-1.3748,-1.3851,-1.3852,-1.3854,0,0,0,0,0,0,-1.359,-1.3598,-1.366,-1.3632,-1.364,-1.3655,-1.3672,-1.3673,-1.3685,-1.3702,-1.3705,-1.3688,-1.372,-1.3726,-1.376,-1.3777,-1.3748,-1.375,-1.385,-1.3851,-1.3853,-1.3867,0,0,0,0,0,0,-1.3588,-1.3597,-1.3611,-1.3632,-1.3641,-1.3689,-1.3673,-1.3675,-1.3689,-1.3688,-1.3711,-1.3714,-1.372,-1.3756,-1.3763,-1.378,-1.3753,-1.3848,-1.385,-1.3852,-1.3865,-1.3869,-1.3872,0,0,0,0,0,-1.3585,-1.3614,-1.3612,-1.3619,-1.3659,-1.369,-1.3695,-1.3701,-1.3691,-1.3705,-1.3716,-1.3713,-1.3774,-1.3759,-1.3767,-1.3786,-1.3847,-1.385,-1.3852,-1.3863,-1.3868,-1.3872,0,0,0,0,0,0,-1.3595,-1.3617,-1.3615,-1.3651,-1.3669,-1.3689,-1.3708,-1.3706,-1.3727,-1.3725,-1.3732,-1.3737,-1.3771,-1.3782,-1.3765,-1.3823,-1.3809,-1.3814,-1.3815,-1.382,-1.3823,-1.382,-1.3755,0,0,0,0,0,-1.3601,-1.3624,-1.3642,-1.3672,-1.3681,-1.3693,-1.3706,-1.3709,-1.3728,-1.3735,-1.3749,-1.3767,-1.379,-1.3806,-1.3828,-1.3866,-1.3871,-1.3883,-1.3887,-1.389,-1.3893,-1.3914,-1.3919,-1.3862,-1.3862,-1.3862,0,0,-1.3615,-1.3629,-1.3643,-1.3675,-1.3688,-1.3712,-1.3699,-1.3724,-1.3742,-1.3739,-1.3772,-1.3782,-1.3803,-1.3839,-1.3856,-1.3849,-1.391,-1.3893,-1.3895,-1.3897,-1.3917,-1.3922,-1.3927,-1.3864,-1.3864,-1.3863,0,0,-1.3651,-1.3665,-1.3691,-1.3705,-1.3726,-1.3734,-1.374,-1.3761,-1.3767,-1.38,-1.3798,-1.3819,-1.3859,-1.3874,-1.3887,-1.3929,-1.3927,-1.3936,-1.3955,-1.3975,-1.3979,-1.3984,-1.3998,-1.4003,-1.394,-1.394,-1.394,0,-1.3666,-1.37,-1.3706,-1.3731,-1.3745,-1.3743,-1.377,-1.3783,-1.3811,-1.382,-1.3813,-1.3862,-1.3877,-1.3916,-1.3926,-1.3936,-1.3944,-1.3933,-1.3978,-1.3982,-1.3986,-1.4,-1.4006,-1.3941,-1.394,-1.394,-1.394,0,-1.3717,-1.3741,-1.376,-1.3786,-1.3802,-1.3828,-1.3837,-1.3853,-1.3855,-1.3863,-1.3896,-1.3913,-1.3938,-1.3948,-1.395,-1.3988,-1.3983,-1.3977,-1.3963,-1.3993,-1.4006,-1.4011,-1.3942,-1.3942,-1.3941,-1.3941,0,0,-1.3761,-1.3789,-1.3796,-1.3807,-1.383,-1.3849,-1.3875,-1.3899,-1.3912,-1.3931,-1.3953,-1.3987,-1.3981,-1.3996,-1.4,-1.4017,-1.4049,-1.4009,-1.401,-1.4016,-1.4091,-1.4095,-1.4101,-1.4048,-1.4049,-1.405,-1.4089,0,-1.38,-1.3845,-1.385,-1.3891,-1.3913,-1.3912,-1.3934,-1.3951,-1.3959,-1.398,-1.399,-1.4013,-1.4004,-1.4013,-1.403,-1.4041,-1.4064,-1.4039,-1.4068,-1.4069,-1.4063,-1.4108,-1.4113,-1.415,-1.4094,-1.4095,-1.4096,0,-1.3851,-1.387,-1.3913,-1.3932,-1.3941,-1.3962,-1.3984,-1.4004,-1.4022,-1.4027,-1.4043,-1.4045,-1.4072,-1.4057,-1.4095,-1.4077,-1.409,-1.4097,-1.4099,-1.4102,-1.4084,-1.4112,-1.4162,-1.4167,-1.4104,-1.4104,-1.4103,0,-1.3878,-1.3915,-1.3945,-1.3955,-1.3978,-1.3992,-1.4003,-1.402,-1.4035,-1.4055,-1.4064,-1.4087,-1.41,-1.4118,-1.4125,-1.4114,-1.4163,-1.4148,-1.4168,-1.4168,-1.4178,-1.4177,-1.423,-1.4187,-1.4187,-1.4186,-1.4186,0,-1.3921,-1.3947,-1.3958,-1.3977,-1.4006,-1.4012,-1.4041,-1.405,-1.4066,-1.4087,-1.4087,-1.4106,-1.4115,-1.4137,-1.4143,-1.4173,-1.4179,-1.4184,-1.4185,-1.4184,-1.4183,-1.4192,-1.419,-1.4188,-1.4188,-1.4187,-1.4187,0,-1.3957,-1.3965,-1.3998,-1.4016,-1.4022,-1.4042,-1.4059,-1.4077,-1.4085,-1.4111,-1.4118,-1.4131,-1.4155,-1.4165,-1.4195,-1.42,-1.4234,-1.4234,-1.4228,-1.4228,-1.4247,-1.4245,-1.4307,-1.4315,-1.4267,-1.4267,-1.4267,0,-1.3983,-1.4003,-1.4023,-1.4037,-1.4047,-1.4069,-1.4083,-1.409,-1.4105,-1.4127,-1.4143,-1.4167,-1.4187,-1.4227,-1.4239,-1.4263,-1.4263,-1.4283,-1.4266,-1.4264,-1.4263,-1.4261,-1.4263,-1.4286,-1.4286,-1.4287,-1.4287,0,-1.4029,-1.4032,-1.4052,-1.4073,-1.409,-1.4108,-1.4125,-1.4136,-1.4145,-1.4162,-1.4187,-1.4202,-1.4233,-1.4257,-1.4281,-1.4292,-1.4291,-1.4292,-1.4298,-1.4296,-1.4292,-1.4294,-1.4236,-1.4291,-1.429,-1.429,-1.429,-1.429,-1.406,-1.4078,-1.4095,-1.4117,-1.413,-1.4146,-1.4164,-1.4174,-1.4194,-1.4219,-1.4222,-1.4249,-1.4267,-1.4299,-1.4311,-1.4332,-1.4327,-1.4335,-1.4337,-1.4339,-1.434,-1.4288,-1.4337,-1.4336,-1.4336,-1.4336,-1.4336,0,-1.4106,-1.4117,-1.4137,-1.416,-1.4178,-1.4175,-1.4193,-1.4208,-1.4232,-1.4248,-1.4267,-1.4296,-1.4319,-1.4334,-1.4357,-1.4372,-1.4372,-1.4378,-1.4377,-1.4379,-1.4344,-1.4336,-1.4377,-1.4377,-1.4377,-1.4377,-1.4377,-1.4377,-1.4132,-1.4161,-1.4166,-1.4201,-1.4212,-1.4237,-1.4248,-1.4263,-1.4276,-1.4308,-1.4327,-1.4336,-1.4351,-1.4376,-1.4398,-1.4401,-1.441,-1.4416,-1.4419,-1.4386,-1.4382,-1.4378,-1.4371,-1.4418,-1.4418,-1.4453,-1.4453,-1.4454]}]]